Weather History for Chatham, MA

Change the Weather History Date:

Saturday, December 14, 2013

  Actual Average Record
Temperature  
Mean Temperature 27 °F -  
Max Temperature 33 °F 43 °F 54 °F (2001)
Min Temperature 21 °F 30 °F 9 °F (1976)
Degree Days  
Heating Degree Days 38    
Moisture  
Dew Point 19 °F    
Average Humidity 74    
Maximum Humidity 92    
Minimum Humidity 53    
Precipitation  
Precipitation 0.04 in - - ()
Sea Level Pressure  
Sea Level Pressure 30.45 in    
Wind  
Wind Speed 9 mph (ENE)    
Max Wind Speed 21 mph    
Max Gust Speed 33 mph    
Visibility 4 miles    
Events Fog , Snow    
Averages and records for this station are not official NWS values.
T = Trace of Precipitation, MM = Missing Value Source: NWS Daily Summary

Daily Weather History Graph

Daily Weather History Graph

Search for Another Location

Airport:

Trip Planner

Search our weather history database for the weather conditions in past years. The results will help you decide how hot, cold, wet, or windy it might be!

Date:

Astronomy

Dec. 14, 2013 Rise Set
Actual Time 6:59 AM EST 4:10 PM EST
Civil Twilight 6:27 AM EST 4:41 PM EST
Nautical Twilight 5:52 AM EST 5:16 PM EST
Astronomical Twilight 5:19 AM EST 5:50 PM EST
Moon 2:31 PM EST (12/14) 4:15 AM EST (12/14)
Length of Visible Light 10h 13m
Length of Day
9h 10m
Waxing Gibbous, 93% of the Moon is Illuminated
Dec 14
Waxing Gibbous
Dec 17
Full
Dec 25
Last Quarter
Jan 1
New
Jan 7
First Quarter

Hourly Weather History & Observations

Time (EST) Temp. Windchill Dew Point Humidity Pressure Visibility Wind Dir Wind Speed Gust Speed Precip Events Conditions
12:52 AM 27.0 °F 18.7 °F 12.0 °F 53% 30.37 in 10.0 mi NW 8.1 mph - N/A   Scattered Clouds
1:52 AM 25.0 °F 16.3 °F 15.1 °F 66% 30.39 in 10.0 mi North 8.1 mph - N/A   Scattered Clouds
2:52 AM 24.1 °F 15.2 °F 12.9 °F 62% 30.43 in 10.0 mi NNW 8.1 mph - N/A   Overcast
3:52 AM 21.9 °F 12.5 °F 10.9 °F 63% 30.44 in 10.0 mi North 8.1 mph - N/A   Mostly Cloudy
4:52 AM 21.9 °F 14.5 °F 10.9 °F 63% 30.45 in 10.0 mi Variable 5.8 mph - N/A   Mostly Cloudy
5:52 AM 21.9 °F 12.5 °F 10.0 °F 60% 30.48 in 10.0 mi NNW 8.1 mph - N/A   Mostly Cloudy
6:01 AM 21.0 °F 12.4 °F 9.0 °F 60% 30.48 in 10.0 mi Variable 6.9 mph - N/A   Scattered Clouds
6:45 AM 21.0 °F 11.4 °F 9.0 °F 60% 30.49 in 10.0 mi North 8.1 mph - N/A   Overcast
6:52 AM 21.0 °F - 9.0 °F 60% 30.51 in 10.0 mi North - - N/A   Overcast
7:52 AM 21.0 °F 13.4 °F 7.0 °F 55% 30.53 in 10.0 mi Variable 5.8 mph - N/A   Overcast
8:52 AM 21.9 °F 14.5 °F 8.1 °F 55% 30.54 in 10.0 mi Variable 5.8 mph - N/A   Overcast
9:52 AM 24.1 °F 17.0 °F 10.9 °F 57% 30.57 in 10.0 mi Variable 5.8 mph - N/A   Mostly Cloudy
10:52 AM 25.0 °F 19.3 °F 14.0 °F 63% 30.56 in 10.0 mi Variable 4.6 mph - N/A   Overcast
11:00 AM 25.0 °F 15.5 °F 17.1 °F 72% 30.54 in 1.8 mi North 9.2 mph - 0.00 in Snow Light Snow
11:16 AM 25.0 °F 18.1 °F 19.0 °F 78% 30.54 in 1.0 mi NNE 5.8 mph - 0.00 in Snow Light Snow
11:42 AM 25.0 °F 19.3 °F 18.0 °F 75% 30.53 in 3.0 mi Variable 4.6 mph - 0.00 in Snow Light Snow
11:52 AM 26.1 °F 19.4 °F 19.0 °F 75% 30.54 in 9.0 mi Variable 5.8 mph - 0.00 in Snow Light Snow
12:10 PM 25.0 °F 19.3 °F 19.0 °F 78% 30.54 in 2.5 mi Variable 4.6 mph - 0.00 in Snow Light Snow
12:19 PM 25.0 °F 18.1 °F 17.1 °F 72% 30.53 in 4.0 mi Variable 5.8 mph - 0.00 in Snow Light Snow
12:23 PM 25.0 °F 16.3 °F 17.1 °F 72% 30.53 in 2.5 mi NE 8.1 mph - 0.00 in Snow Light Snow
12:32 PM 25.0 °F 19.3 °F 17.1 °F 72% 30.53 in 1.2 mi NNE 4.6 mph - 0.00 in Snow Light Snow
12:44 PM 25.0 °F 18.1 °F 17.1 °F 72% 30.53 in 3.0 mi NE 5.8 mph - 0.00 in Snow Light Snow
12:52 PM 26.1 °F 18.4 °F 17.1 °F 69% 30.53 in 7.0 mi Variable 6.9 mph - 0.00 in Snow Light Snow
1:00 PM 25.0 °F 18.1 °F 17.1 °F 72% 30.53 in 1.8 mi NE 5.8 mph - 0.00 in Snow Light Snow
1:26 PM 25.0 °F 15.5 °F 19.9 °F 81% 30.52 in 0.8 mi NE 9.2 mph - 0.00 in Snow Light Snow
1:42 PM 25.0 °F 16.3 °F 19.9 °F 81% 30.51 in 1.2 mi ENE 8.1 mph - 0.00 in Snow Light Snow
1:52 PM 25.0 °F 16.3 °F 19.9 °F 81% 30.52 in 1.5 mi ENE 8.1 mph - 0.00 in Snow Light Snow
2:16 PM 25.0 °F 16.3 °F 19.9 °F 81% 30.51 in 0.5 mi East 8.1 mph - 0.00 in Snow Snow
2:25 PM 25.0 °F 15.5 °F 19.9 °F 81% 30.52 in 1.0 mi ENE 9.2 mph - 0.00 in Snow Light Snow
2:44 PM 25.0 °F 16.3 °F 19.0 °F 78% 30.51 in 3.0 mi East 8.1 mph - 0.00 in Snow Light Snow
2:52 PM 26.1 °F 17.6 °F 19.0 °F 75% 30.51 in 6.0 mi East 8.1 mph - 0.01 in Snow Light Snow
3:35 PM 26.1 °F 16.2 °F 19.0 °F 75% 30.50 in 2.5 mi East 10.4 mph - 0.00 in Snow Light Snow
3:40 PM 26.1 °F 16.2 °F 19.0 °F 75% 30.50 in 1.8 mi ENE 10.4 mph - 0.00 in Snow Light Snow
3:47 PM 26.6 °F 17.5 °F 19.4 °F 74% 30.51 in 2.0 mi East 9.2 mph - 0.00 in Snow Light Snow
3:52 PM 26.1 °F 16.2 °F 19.0 °F 75% 30.52 in 4.0 mi East 10.4 mph - 0.00 in Snow Light Snow
4:29 PM 26.1 °F 15.0 °F 19.9 °F 78% 30.50 in 4.0 mi East 12.7 mph - 0.00 in Snow Light Snow
4:43 PM 27.0 °F 17.3 °F 19.0 °F 72% 30.49 in 5.0 mi ENE 10.4 mph - 0.00 in Snow Light Snow
4:49 PM 26.6 °F 16.2 °F 19.4 °F 74% 30.48 in 2.5 mi East 11.5 mph - 0.00 in Snow Light Snow
4:50 PM 27.0 °F 17.3 °F 19.9 °F 75% 30.49 in 2.5 mi East 10.4 mph - 0.00 in Snow Light Snow
4:58 PM 27.0 °F 16.1 °F 21.0 °F 78% 30.48 in 1.5 mi East 12.7 mph - 0.00 in Snow Light Snow
5:08 PM 27.0 °F 16.1 °F 21.9 °F 81% 30.47 in 2.5 mi East 12.7 mph - 0.00 in Snow Light Snow
5:28 PM 27.0 °F 15.6 °F 21.9 °F 81% 30.46 in 3.0 mi East 13.8 mph 20.7 mph 0.00 in Snow Light Snow
5:52 PM 28.0 °F 16.5 °F 21.0 °F 75% 30.46 in 4.0 mi East 15.0 mph - 0.00 in Snow Light Snow
6:52 PM 28.9 °F 17.7 °F 21.9 °F 75% 30.39 in 5.0 mi East 15.0 mph - 0.00 in Snow Light Snow
7:52 PM 30.0 °F 18.7 °F 23.0 °F 75% 30.39 in 10.0 mi East 16.1 mph 24.2 mph 0.00 in   Overcast
8:52 PM 30.9 °F 18.4 °F 25.0 °F 79% 30.34 in 4.0 mi East 20.7 mph 29.9 mph 0.00 in Snow Light Snow
9:39 PM 32.0 °F 21.2 °F 26.1 °F 79% 30.30 in 2.5 mi East 16.1 mph 27.6 mph 0.00 in Snow Light Snow
9:52 PM 32.0 °F 20.8 °F 27.0 °F 82% 30.30 in 1.5 mi East 17.3 mph 26.5 mph 0.00 in Snow Light Snow
10:01 PM 30.9 °F 19.4 °F 28.0 °F 89% 30.30 in 0.8 mi East 17.3 mph 26.5 mph 0.00 in Snow Light Snow
10:10 PM 32.0 °F 20.8 °F 28.0 °F 85% 30.28 in 0.8 mi East 17.3 mph 25.3 mph 0.00 in Snow Light Snow
10:26 PM 32.0 °F 21.2 °F 28.9 °F 88% 30.27 in 0.5 mi East 16.1 mph 27.6 mph 0.01 in Fog , Snow Snow
10:33 PM 32.0 °F 20.5 °F 30.0 °F 92% 30.25 in 0.5 mi East 18.4 mph 27.6 mph 0.01 in Fog , Snow Snow
10:52 PM 32.0 °F 20.8 °F 28.9 °F 88% 30.24 in 1.0 mi ESE 17.3 mph 28.8 mph 0.01 in Snow Light Snow
10:58 PM 32.0 °F 20.5 °F 28.9 °F 88% 30.22 in 1.2 mi ESE 18.4 mph 29.9 mph 0.00 in Snow Light Snow
11:34 PM 33.1 °F 21.9 °F 30.9 °F 92% 30.19 in 1.0 mi East 18.4 mph 27.6 mph 0.01 in Snow Light Snow
11:52 PM 33.1 °F 21.5 °F 30.9 °F 92% 30.17 in 1.5 mi East 19.6 mph 33.4 mph 0.02 in Snow Light Snow